| time (UTC) | temp F | wind direction | speed knots | gust knots | rain 1hr in | rain 24hr in | rain mn in | humidity % | barometer mb |
| 20260505113020 | 70 | 304 | 0.0 | 0.0 | 0.00 | 0.00 | 0.00 | 90 | 1018.6 |
| 20260505112516 | 70 | 306 | 0.0 | 0.0 | 0.00 | 0.00 | 0.00 | 90 | 1018.4 |
| 20260505112014 | 70 | 306 | 0.0 | 0.0 | 0.00 | 0.00 | 0.00 | 91 | 1018.4 |
| 20260505111508 | 69 | 291 | 0.0 | 0.0 | 0.00 | 0.00 | 0.00 | 90 | 1018.7 |
| 20260505111004 | 69 | 301 | 0.0 | 0.0 | 0.00 | 0.00 | 0.00 | 91 | 1018.7 |
| 20260505110501 | 69 | 306 | 0.0 | 0.0 | 0.00 | 0.00 | 0.00 | 92 | 1018.5 |
| 20260505101927 | 66 | 309 | 0.0 | 0.0 | 0.00 | 0.00 | 0.00 | 95 | 1017.9 |
| 20260505101426 | 66 | 332 | 0.9 | 0.9 | 0.00 | 0.00 | 0.00 | 95 | 1017.8 |
| 20260505100922 | 66 | 311 | 0.9 | 0.9 | 0.00 | 0.00 | 0.00 | 96 | 1017.6 |
| 20260505100420 | 66 | 307 | 0.0 | 0.0 | 0.00 | 0.00 | 0.00 | 96 | 1017.4 |
| 20260505095915 | 65 | 314 | 0.0 | 0.0 | 0.00 | 0.00 | 0.00 | 97 | 1017.7 |
| 20260505095413 | 65 | 310 | 0.0 | 0.0 | 0.00 | 0.00 | 0.00 | 97 | 1017.7 |
| 20260505094908 | 66 | 310 | 0.0 | 0.9 | 0.00 | 0.00 | 0.00 | 97 | 1017.6 |
| 20260505094406 | 65 | 267 | 0.9 | 0.9 | 0.00 | 0.00 | 0.00 | 97 | 1017.6 |
| 20260505093901 | 65 | 310 | 0.0 | 0.0 | 0.00 | 0.00 | 0.00 | 97 | 1017.6 |
| 20260505093359 | 65 | 300 | 0.0 | 0.0 | 0.00 | 0.00 | 0.00 | 97 | 1017.7 |
| 20260505092856 | 66 | 293 | 0.0 | 0.0 | 0.00 | 0.00 | 0.00 | 97 | 1017.5 |
| 20260505092354 | 65 | 299 | 0.0 | 0.0 | 0.00 | 0.00 | 0.00 | 97 | 1017.4 |
| 20260505091851 | 65 | 300 | 0.0 | 0.0 | 0.00 | 0.00 | 0.00 | 97 | 1017.6 |
| 20260505091349 | 66 | 308 | 0.0 | 0.0 | 0.00 | 0.00 | 0.00 | 97 | 1017.3 |
| 20260505090847 | 66 | 302 | 0.0 | 0.0 | 0.00 | 0.00 | 0.00 | 97 | 1017.6 |
| 20260505090345 | 66 | 300 | 0.0 | 0.0 | 0.00 | 0.00 | 0.00 | 97 | 1017.7 |
| 20260505085841 | 66 | 294 | 0.0 | 0.0 | 0.00 | 0.00 | 0.00 | 97 | 1017.7 |
| 20260505085339 | 66 | 308 | 0.0 | 0.0 | 0.00 | 0.00 | 0.00 | 97 | 1017.4 |
| 20260505084837 | 66 | 308 | 0.0 | 0.0 | 0.00 | 0.00 | 0.00 | 97 | 1017.7 |
| 20260505084335 | 66 | 308 | 0.0 | 0.0 | 0.00 | 0.00 | 0.00 | 97 | 1017.6 |
| 20260505083832 | 66 | 308 | 0.0 | 0.0 | 0.00 | 0.00 | 0.00 | 97 | 1017.7 |
| 20260505083330 | 66 | 308 | 0.0 | 0.9 | 0.00 | 0.00 | 0.00 | 97 | 1017.5 |
| 20260505082826 | 66 | 309 | 0.9 | 0.9 | 0.00 | 0.00 | 0.00 | 97 | 1017.7 |
| 20260505082322 | 66 | 308 | 0.0 | 0.0 | 0.00 | 0.00 | 0.00 | 97 | 1017.5 |
| 20260505081819 | 66 | 308 | 0.0 | 0.0 | 0.00 | 0.00 | 0.00 | 97 | 1017.6 |
| 20260505081316 | 66 | 308 | 0.9 | 0.9 | 0.00 | 0.00 | 0.00 | 97 | 1017.5 |
| 20260505080812 | 66 | 290 | 0.0 | 0.0 | 0.00 | 0.00 | 0.00 | 96 | 1017.8 |
| 20260505080308 | 66 | 319 | 0.0 | 0.9 | 0.00 | 0.00 | 0.00 | 96 | 1017.7 |
| 20260505075804 | 66 | 300 | 0.0 | 0.9 | 0.00 | 0.00 | 0.00 | 96 | 1017.6 |
| 20260505075304 | 66 | 308 | 0.0 | 0.0 | 0.00 | 0.00 | 0.00 | 96 | 1017.6 |
| 20260505074758 | 67 | 311 | 0.0 | 0.0 | 0.00 | 0.00 | 0.00 | 96 | 1017.3 |
| 20260505074255 | 66 | 299 | 0.0 | 0.0 | 0.00 | 0.00 | 0.00 | 96 | 1017.4 |
| 20260505073753 | 67 | 292 | 0.0 | 0.0 | 0.00 | 0.00 | 0.00 | 95 | 1017.2 |
| 20260505073251 | 67 | 308 | 0.0 | 0.0 | 0.00 | 0.00 | 0.00 | 95 | 1017.3 |
| 20260505072747 | 67 | 272 | 0.9 | 0.9 | 0.00 | 0.00 | 0.00 | 95 | 1017.5 |
| 20260505072243 | 67 | 293 | 0.0 | 0.9 | 0.00 | 0.00 | 0.00 | 96 | 1017.4 |
| 20260505071739 | 67 | 321 | 0.9 | 0.9 | 0.00 | 0.00 | 0.00 | 96 | 1017.3 |
| 20260505071236 | 67 | 291 | 0.0 | 0.0 | 0.00 | 0.00 | 0.00 | 96 | 1017.4 |
| 20260505070734 | 67 | 305 | 0.0 | 0.0 | 0.00 | 0.00 | 0.00 | 96 | 1017.3 |
| 20260505070230 | 67 | 295 | 0.0 | 0.0 | 0.00 | 0.00 | 0.00 | 96 | 1017.3 |
| 20260505065726 | 67 | 305 | 0.0 | 0.0 | 0.00 | 0.00 | 0.00 | 96 | 1017.3 |
| 20260505065223 | 67 | 299 | 0.0 | 0.0 | 0.00 | 0.00 | 0.00 | 96 | 1017.7 |
| 20260505064720 | 67 | 304 | 0.0 | 0.0 | 0.00 | 0.00 | 0.00 | 95 | 1017.5 |
| 20260505064218 | 67 | 281 | 0.0 | 0.0 | 0.00 | 0.00 | 0.00 | 95 | 1017.5 |
| 20260505063715 | 67 | 299 | 0.0 | 0.0 | 0.00 | 0.00 | 0.00 | 96 | 1017.5 |
| 20260505063211 | 67 | 305 | 0.0 | 0.0 | 0.00 | 0.00 | 0.00 | 96 | 1017.5 |
| 20260505062707 | 67 | 305 | 0.0 | 0.0 | 0.00 | 0.00 | 0.00 | 95 | 1017.5 |
| 20260505062205 | 67 | 295 | 0.0 | 0.0 | 0.00 | 0.00 | 0.00 | 95 | 1017.5 |
| 20260505061701 | 67 | 312 | 0.9 | 0.9 | 0.00 | 0.00 | 0.00 | 95 | 1017.6 |
| 20260505061200 | 67 | 308 | 0.0 | 0.0 | 0.00 | 0.00 | 0.00 | 95 | 1017.6 |
| 20260505060657 | 67 | 313 | 0.9 | 0.9 | 0.00 | 0.00 | 0.00 | 95 | 1017.5 |
| 20260505060154 | 67 | 284 | 0.9 | 0.9 | 0.00 | 0.00 | 0.00 | 95 | 1017.6 |
| 20260505055649 | 67 | 299 | 0.0 | 0.9 | 0.00 | 0.00 | 0.00 | 95 | 1017.9 |
| 20260505055146 | 68 | 306 | 0.0 | 0.0 | 0.00 | 0.00 | 0.00 | 95 | 1017.8 |
| 20260505054643 | 68 | 295 | 0.0 | 0.9 | 0.00 | 0.00 | 0.00 | 94 | 1017.9 |
| 20260505054141 | 68 | 319 | 0.9 | 0.9 | 0.00 | 0.00 | 0.00 | 94 | 1018.0 |
| 20260505053639 | 68 | 289 | 0.0 | 0.0 | 0.00 | 0.00 | 0.00 | 94 | 1018.0 |
| 20260505053135 | 68 | 289 | 0.0 | 0.0 | 0.00 | 0.00 | 0.00 | 94 | 1017.8 |
| 20260505052632 | 68 | 304 | 0.0 | 0.0 | 0.00 | 0.00 | 0.00 | 94 | 1018.0 |
| 20260505052129 | 68 | 292 | 0.0 | 0.9 | 0.00 | 0.00 | 0.00 | 94 | 1018.3 |
| 20260505051626 | 68 | 289 | 0.0 | 0.0 | 0.00 | 0.00 | 0.00 | 94 | 1017.9 |
| 20260505051124 | 68 | 298 | 0.9 | 0.9 | 0.00 | 0.00 | 0.00 | 94 | 1018.2 |
| 20260505050621 | 68 | 297 | 0.0 | 0.0 | 0.00 | 0.00 | 0.00 | 93 | 1018.1 |
| 20260505050120 | 68 | 294 | 0.0 | 0.0 | 0.00 | 0.00 | 0.00 | 93 | 1018.4 |
| 20260505041549 | 69 | 304 | 0.9 | 0.9 | 0.00 | 0.00 | 0.00 | 92 | 1019.0 |
| 20260505041047 | 69 | 287 | 0.0 | 0.0 | 0.00 | 0.00 | 0.00 | 91 | 1019.0 |
| 20260505040544 | 68 | 287 | 0.0 | 0.9 | 0.00 | 0.00 | 0.00 | 91 | 1018.7 |
| 20260505040041 | 68 | 287 | 0.0 | 0.0 | 0.00 | 0.00 | 0.00 | 92 | 1019.0 |
| 20260505035537 | 68 | 287 | 0.0 | 0.9 | 0.00 | 0.00 | 0.00 | 92 | 1018.9 |
| 20260505035034 | 68 | 287 | 0.0 | 0.0 | 0.00 | 0.00 | 0.00 | 92 | 1019.1 |
| 20260505034530 | 68 | 287 | 0.0 | 0.0 | 0.00 | 0.00 | 0.00 | 91 | 1019.2 |
| 20260505034027 | 68 | 287 | 0.0 | 0.0 | 0.00 | 0.00 | 0.00 | 91 | 1019.1 |
| 20260505033524 | 68 | 307 | 0.9 | 0.9 | 0.00 | 0.00 | 0.00 | 92 | 1019.3 |
| 20260505033022 | 68 | 308 | 0.0 | 0.0 | 0.00 | 0.00 | 0.00 | 93 | 1019.2 |
| 20260505032520 | 68 | 329 | 0.0 | 0.0 | 0.00 | 0.00 | 0.00 | 93 | 1019.4 |
| 20260505032016 | 68 | 304 | 0.0 | 0.0 | 0.00 | 0.00 | 0.00 | 93 | 1019.3 |
| 20260505031514 | 68 | 304 | 0.0 | 0.0 | 0.00 | 0.00 | 0.00 | 93 | 1019.3 |
| 20260505031010 | 67 | 304 | 0.0 | 0.0 | 0.00 | 0.00 | 0.00 | 93 | 1019.4 |
| 20260505030507 | 67 | 305 | 0.0 | 0.0 | 0.00 | 0.00 | 0.00 | 93 | 1019.5 |
| 20260505030002 | 68 | 308 | 0.0 | 0.0 | 0.00 | 0.00 | 0.00 | 93 | 1019.4 |
| 20260505025459 | 67 | 314 | 0.0 | 0.0 | 0.00 | 0.00 | 0.00 | 93 | 1019.6 |
| 20260505024958 | 67 | 311 | 0.0 | 0.0 | 0.00 | 0.00 | 0.00 | 93 | 1019.4 |
| 20260505024454 | 67 | 311 | 0.9 | 0.9 | 0.00 | 0.00 | 0.00 | 93 | 1019.3 |
| 20260505023951 | 67 | 311 | 0.0 | 0.0 | 0.00 | 0.00 | 0.00 | 94 | 1019.5 |
| 20260505023448 | 67 | 310 | 0.0 | 0.0 | 0.00 | 0.00 | 0.00 | 93 | 1019.6 |
| 20260505022946 | 67 | 310 | 0.0 | 0.9 | 0.00 | 0.00 | 0.00 | 93 | 1019.3 |
| 20260505022443 | 67 | 311 | 0.0 | 0.0 | 0.00 | 0.00 | 0.00 | 93 | 1019.2 |
| 20260505021941 | 67 | 311 | 0.0 | 0.0 | 0.00 | 0.00 | 0.00 | 93 | 1019.2 |
| 20260505021437 | 67 | 311 | 0.0 | 0.0 | 0.00 | 0.00 | 0.00 | 93 | 1019.2 |
| 20260505020932 | 67 | 311 | 0.0 | 0.0 | 0.00 | 0.00 | 0.00 | 93 | 1019.1 |
| 20260505020428 | 67 | 309 | 0.0 | 0.0 | 0.00 | 0.00 | 0.00 | 93 | 1019.2 |
| 20260505015925 | 67 | 304 | 0.0 | 0.0 | 0.00 | 0.00 | 0.00 | 93 | 1019.1 |
| 20260505015422 | 68 | 307 | 0.0 | 0.0 | 0.00 | 0.00 | 0.00 | 93 | 1019.0 |
| 20260505014920 | 68 | 309 | 0.0 | 0.0 | 0.00 | 0.00 | 0.00 | 93 | 1018.9 |
| 20260505014416 | 68 | 302 | 0.0 | 0.0 | 0.00 | 0.00 | 0.00 | 93 | 1019.0 |
| 20260505013913 | 68 | 302 | 0.0 | 0.0 | 0.00 | 0.00 | 0.00 | 93 | 1019.0 |
| 20260505013410 | 68 | 306 | 0.0 | 0.0 | 0.00 | 0.00 | 0.00 | 93 | 1018.9 |
| 20260505012908 | 69 | 308 | 0.0 | 0.9 | 0.00 | 0.00 | 0.00 | 93 | 1018.7 |
| 20260505012406 | 69 | 300 | 0.0 | 0.0 | 0.00 | 0.00 | 0.00 | 92 | 1018.9 |
| 20260505011902 | 69 | 300 | 0.9 | 0.9 | 0.00 | 0.00 | 0.00 | 91 | 1018.6 |
| 20260505011359 | 69 | 334 | 0.9 | 0.9 | 0.00 | 0.00 | 0.00 | 91 | 1018.2 |
| 20260505010855 | 69 | 311 | 0.0 | 0.0 | 0.00 | 0.00 | 0.00 | 92 | 1018.3 |
| 20260505010351 | 69 | 299 | 0.0 | 0.0 | 0.00 | 0.00 | 0.00 | 91 | 1018.1 |
| 20260505005847 | 69 | 309 | 0.0 | 0.0 | 0.00 | 0.00 | 0.00 | 91 | 1018.2 |
| 20260505005344 | 70 | 306 | 0.0 | 0.0 | 0.00 | 0.00 | 0.00 | 91 | 1018.1 |
| 20260505004842 | 70 | 315 | 0.0 | 0.0 | 0.00 | 0.00 | 0.00 | 91 | 1018.1 |
| 20260505004338 | 70 | 304 | 0.0 | 0.9 | 0.00 | 0.00 | 0.00 | 91 | 1018.1 |
| 20260505003835 | 71 | 306 | 0.0 | 0.0 | 0.00 | 0.00 | 0.00 | 88 | 1018.2 |
| 20260505003332 | 72 | 289 | 0.0 | 0.0 | 0.00 | 0.00 | 0.00 | 86 | 1018.2 |
| 20260505002828 | 72 | 287 | 0.9 | 0.9 | 0.00 | 0.00 | 0.00 | 85 | 1018.0 |
| 20260505002325 | 72 | 264 | 0.9 | 0.9 | 0.00 | 0.00 | 0.00 | 87 | 1018.2 |
| 20260505001824 | 72 | 285 | 0.0 | 0.0 | 0.00 | 0.00 | 0.00 | 87 | 1018.2 |
| 20260505001320 | 71 | 275 | 0.9 | 0.9 | 0.00 | 0.00 | 0.00 | 88 | 1018.2 |
| 20260505000818 | 72 | 289 | 0.0 | 0.0 | 0.00 | 0.00 | 0.00 | 88 | 1018.1 |
| 20260505000315 | 72 | 309 | 0.0 | 0.0 | 0.00 | 0.00 | 0.00 | 89 | 1018.2 |
| 20260504235812 | 72 | 295 | 0.0 | 0.0 | 0.00 | 0.00 | 0.00 | 88 | 1018.0 |
| 20260504235309 | 72 | 295 | 0.0 | 0.0 | 0.00 | 0.00 | 0.00 | 87 | 1018.1 |
| 20260504234805 | 72 | 19 | 1.7 | 1.7 | 0.00 | 0.00 | 0.00 | 88 | 1018.2 |
| 20260504234303 | 72 | 40 | 0.9 | 0.9 | 0.00 | 0.00 | 0.00 | 87 | 1018.0 |
| 20260504233759 | 72 | 316 | 0.9 | 0.9 | 0.00 | 0.00 | 0.00 | 88 | 1017.9 |
| 20260504233255 | 72 | 298 | 0.0 | 0.9 | 0.00 | 0.00 | 0.00 | 87 | 1018.0 |
| 20260504232752 | 73 | 311 | 0.0 | 0.0 | 0.00 | 0.00 | 0.00 | 88 | 1017.9 |
| 20260504232249 | 73 | 275 | 0.0 | 0.9 | 0.00 | 0.00 | 0.00 | 87 | 1018.1 |
| 20260504231746 | 73 | 87 | 0.9 | 0.9 | 0.00 | 0.00 | 0.00 | 87 | 1018.0 |
| 20260504231243 | 73 | 88 | 0.0 | 0.9 | 0.00 | 0.00 | 0.00 | 86 | 1017.9 |
| 20260504230738 | 73 | 84 | 0.9 | 0.9 | 0.00 | 0.00 | 0.00 | 85 | 1018.1 |
| 20260504230237 | 73 | 353 | 1.7 | 1.7 | 0.00 | 0.00 | 0.00 | 84 | 1017.9 |
| 20260504225735 | 73 | 318 | 0.0 | 0.9 | 0.00 | 0.00 | 0.00 | 85 | 1018.1 |
| 20260504225231 | 73 | 312 | 0.9 | 0.9 | 0.00 | 0.00 | 0.00 | 86 | 1017.9 |
| 20260504224729 | 73 | 287 | 0.0 | 0.9 | 0.00 | 0.00 | 0.00 | 85 | 1017.9 |
| 20260504224226 | 73 | 287 | 0.0 | 0.0 | 0.00 | 0.00 | 0.00 | 86 | 1017.8 |
| 20260504223722 | 74 | 294 | 0.0 | 0.0 | 0.00 | 0.00 | 0.00 | 85 | 1017.6 |
| 20260504223217 | 74 | 325 | 0.9 | 0.9 | 0.00 | 0.00 | 0.00 | 83 | 1017.6 |
| 20260504222715 | 74 | 220 | 1.7 | 1.7 | 0.00 | 0.00 | 0.00 | 83 | 1017.5 |
| 20260504222212 | 74 | 282 | 0.9 | 1.7 | 0.00 | 0.00 | 0.00 | 82 | 1017.4 |
| 20260504221709 | 74 | 282 | 0.0 | 0.0 | 0.00 | 0.00 | 0.00 | 84 | 1017.3 |
| 20260504221206 | 74 | 293 | 0.9 | 0.9 | 0.00 | 0.00 | 0.00 | 85 | 1017.2 |
| 20260504220702 | 74 | 301 | 0.0 | 0.9 | 0.00 | 0.00 | 0.00 | 84 | 1017.3 |
| 20260504220200 | 75 | 104 | 1.7 | 2.6 | 0.00 | 0.00 | 0.00 | 83 | 1017.2 |
| 20260504215656 | 74 | 348 | 1.7 | 1.7 | 0.00 | 0.00 | 0.00 | 83 | 1017.2 |
| 20260504215154 | 74 | 272 | 1.7 | 2.6 | 0.00 | 0.00 | 0.00 | 84 | 1017.3 |
| 20260504214649 | 74 | 252 | 0.9 | 1.7 | 0.00 | 0.00 | 0.00 | 87 | 1016.7 |
| 20260504214146 | 74 | 275 | 1.7 | 1.7 | 0.00 | 0.00 | 0.00 | 86 | 1017.0 |
| 20260504213643 | 74 | 273 | 0.0 | 0.0 | 0.00 | 0.00 | 0.00 | 85 | 1017.0 |
| 20260504213139 | 75 | 266 | 0.0 | 0.0 | 0.00 | 0.00 | 0.00 | 85 | 1017.0 |
| 20260504212636 | 74 | 294 | 2.6 | 4.3 | 0.00 | 0.00 | 0.00 | 85 | 1016.9 |
| 20260504212132 | 75 | 283 | 0.0 | 0.9 | 0.00 | 0.00 | 0.00 | 85 | 1016.9 |
| 20260504211630 | 75 | 265 | 0.0 | 0.0 | 0.00 | 0.00 | 0.00 | 85 | 1017.0 |
| 20260504211126 | 75 | 258 | 0.9 | 0.9 | 0.00 | 0.00 | 0.00 | 84 | 1016.9 |
| 20260504210624 | 76 | 271 | 1.7 | 1.7 | 0.00 | 0.00 | 0.00 | 83 | 1016.7 |
| 20260504210120 | 76 | 298 | 0.9 | 1.7 | 0.00 | 0.00 | 0.00 | 82 | 1016.6 |
| 20260504205618 | 75 | 273 | 0.0 | 0.9 | 0.00 | 0.00 | 0.00 | 81 | 1016.6 |
| 20260504205115 | 76 | 283 | 1.7 | 2.6 | 0.00 | 0.00 | 0.00 | 82 | 1016.9 |
| 20260504204614 | 75 | 261 | 0.9 | 0.9 | 0.00 | 0.00 | 0.00 | 84 | 1016.6 |
| 20260504204112 | 75 | 269 | 0.0 | 0.9 | 0.00 | 0.00 | 0.00 | 85 | 1016.6 |
| 20260504203611 | 77 | 302 | 0.0 | 0.9 | 0.00 | 0.00 | 0.00 | 82 | 1016.7 |
| 20260504203108 | 77 | 258 | 0.9 | 0.9 | 0.00 | 0.00 | 0.00 | 79 | 1016.5 |
| 20260504202603 | 76 | 258 | 2.6 | 2.6 | 0.00 | 0.00 | 0.00 | 79 | 1016.6 |
| 20260504202100 | 76 | 258 | 0.0 | 0.0 | 0.00 | 0.00 | 0.00 | 83 | 1016.7 |
| 20260504201557 | 76 | 258 | 2.6 | 4.3 | 0.00 | 0.00 | 0.00 | 84 | 1016.5 |
| 20260504201055 | 76 | 258 | 0.9 | 1.7 | 0.00 | 0.00 | 0.00 | 80 | 1016.4 |
| 20260504200551 | 77 | 258 | 0.9 | 1.7 | 0.00 | 0.00 | 0.00 | 83 | 1016.4 |
| 20260504200048 | 79 | 282 | 0.9 | 0.9 | 0.00 | 0.00 | 0.00 | 77 | 1016.4 |
| 20260504195544 | 78 | 260 | 2.6 | 2.6 | 0.00 | 0.00 | 0.00 | 80 | 1016.6 |
| 20260504195040 | 78 | 258 | 2.6 | 2.6 | 0.00 | 0.00 | 0.00 | 81 | 1016.4 |
| 20260504194537 | 78 | 258 | 0.9 | 0.9 | 0.00 | 0.00 | 0.00 | 79 | 1016.6 |
| 20260504194032 | 79 | 277 | 0.0 | 0.9 | 0.00 | 0.00 | 0.00 | 76 | 1016.6 |
| 20260504193529 | 78 | 264 | 0.0 | 0.0 | 0.00 | 0.00 | 0.00 | 76 | 1016.7 |
| 20260504193028 | 77 | 258 | 1.7 | 2.6 | 0.00 | 0.00 | 0.00 | 78 | 1017.0 |
| 20260504192526 | 77 | 258 | 0.9 | 1.7 | 0.00 | 0.00 | 0.00 | 80 | 1016.9 |
| 20260504192024 | 77 | 258 | 1.7 | 1.7 | 0.00 | 0.00 | 0.00 | 81 | 1017.1 |
| 20260504191521 | 79 | 261 | 5.2 | 6.1 | 0.00 | 0.00 | 0.00 | 77 | 1017.2 |
| 20260504191017 | 78 | 258 | 0.0 | 0.9 | 0.00 | 0.00 | 0.00 | 77 | 1016.7 |
| 20260504190513 | 79 | 258 | 2.6 | 2.6 | 0.00 | 0.00 | 0.00 | 78 | 1016.9 |
| 20260504190009 | 80 | 258 | 0.0 | 0.0 | 0.00 | 0.00 | 0.00 | 77 | 1016.7 |
| 20260504185507 | 78 | 258 | 0.0 | 0.0 | 0.00 | 0.00 | 0.00 | 76 | 1017.1 |
| 20260504185004 | 78 | 258 | 1.7 | 1.7 | 0.00 | 0.00 | 0.00 | 76 | 1017.2 |
| 20260504184459 | 80 | 269 | 2.6 | 5.2 | 0.00 | 0.00 | 0.00 | 72 | 1017.1 |
| 20260504183954 | 78 | 258 | 0.9 | 0.9 | 0.00 | 0.00 | 0.00 | 78 | 1017.1 |
| 20260504183452 | 79 | 258 | 2.6 | 4.3 | 0.00 | 0.00 | 0.00 | 75 | 1017.2 |
| 20260504182950 | 79 | 258 | 1.7 | 1.7 | 0.00 | 0.00 | 0.00 | 76 | 1017.2 |
| 20260504182446 | 78 | 258 | 0.0 | 0.9 | 0.00 | 0.00 | 0.00 | 78 | 1017.4 |
| 20260504181944 | 79 | 258 | 0.9 | 0.9 | 0.00 | 0.00 | 0.00 | 76 | 1017.4 |
| 20260504181441 | 79 | 258 | 2.6 | 2.6 | 0.00 | 0.00 | 0.00 | 75 | 1017.5 |
| 20260504180939 | 79 | 258 | 4.3 | 6.1 | 0.00 | 0.00 | 0.00 | 77 | 1017.3 |
| 20260504180438 | 80 | 258 | 0.9 | 0.9 | 0.00 | 0.00 | 0.00 | 72 | 1017.3 |
| 20260504175936 | 80 | 258 | 0.9 | 1.7 | 0.00 | 0.00 | 0.00 | 74 | 1017.4 |
| 20260504175433 | 80 | 258 | 1.7 | 1.7 | 0.00 | 0.00 | 0.00 | 74 | 1017.4 |
| 20260504174930 | 80 | 258 | 3.5 | 5.2 | 0.00 | 0.00 | 0.00 | 71 | 1017.5 |
| 20260504174427 | 80 | 258 | 2.6 | 4.3 | 0.00 | 0.00 | 0.00 | 72 | 1018.0 |
| 20260504173925 | 79 | 258 | 1.7 | 1.7 | 0.00 | 0.00 | 0.00 | 71 | 1017.7 |
| 20260504173421 | 80 | 258 | 2.6 | 2.6 | 0.00 | 0.00 | 0.00 | 71 | 1017.6 |
| 20260504172919 | 81 | 258 | 4.3 | 6.1 | 0.00 | 0.00 | 0.00 | 69 | 1018.0 |
| 20260504172415 | 82 | 258 | 0.9 | 0.9 | 0.00 | 0.00 | 0.00 | 68 | 1017.7 |
| 20260504171911 | 82 | 258 | 0.0 | 0.9 | 0.00 | 0.00 | 0.00 | 65 | 1017.9 |
| 20260504171409 | 80 | 258 | 0.0 | 0.0 | 0.00 | 0.00 | 0.00 | 71 | 1017.9 |
| 20260504170905 | 79 | 258 | 0.0 | 0.9 | 0.00 | 0.00 | 0.00 | 68 | 1017.9 |
| 20260504170402 | 80 | 258 | 0.9 | 0.9 | 0.00 | 0.00 | 0.00 | 67 | 1017.8 |
| 20260504160321 | 81 | 258 | 3.5 | 5.2 | 0.00 | 0.00 | 0.00 | 67 | 1018.3 |
| 20260504150745 | 80 | 258 | 1.7 | 2.6 | 0.00 | 0.00 | 0.00 | 70 | 1018.9 |
| 20260504150242 | 79 | 258 | 0.9 | 1.7 | 0.00 | 0.00 | 0.00 | 72 | 1018.4 |
| 20260504141212 | 80 | 302 | 0.9 | 0.9 | 0.00 | 0.00 | 0.00 | 70 | 1018.9 |
| 20260504140708 | 79 | 256 | 2.6 | 4.3 | 0.00 | 0.00 | 0.00 | 72 | 1018.2 |
| 20260504140203 | 80 | 228 | 2.6 | 2.6 | 0.00 | 0.00 | 0.00 | 70 | 1018.5 |
| 20260504130632 | 79 | 291 | 0.0 | 0.9 | 0.00 | 0.00 | 0.00 | 72 | 1018.5 |
| 20260504130129 | 79 | 65 | 2.6 | 2.6 | 0.00 | 0.00 | 0.00 | 69 | 1018.4 |